This demonstration page uses our WeatherBlox Daily Observations layout. Learn more.

Left ArrowRight Arrow

39.51506, -84.39828

Hourly Observations for April 6, 2018

Temp ( °F °C ) Dew Point ( °F °C ) Humidity (%) Winds ( mph kmh ) Pressure ( in mb ) Visibility ( mi km ) Precip ( " mm )
12:15 am 00:15 Cloudy 40 4.3 33 0.3 75 75 Calm 30.03 1017 10 16 0.00 0.00
12:35 am 00:35 Cloudy 40 4.2 33 0.6 78 78 Calm 30.03 1017 10 16 0.00 0.00
12:55 am 00:55 Cloudy 40 4.5 33 0.4 75 75 Calm 30.00 1016 10 16 0.00 0.00
1:15 am 01:15 Cloudy 40 4.6 35 1.4 80 80 Calm 30.00 1016 10 16 0.00 0.00
1:35 am 01:35 Cloudy 44 6.8 31 -0.7 59 59 S 6 9 30.00 1016 10 16 0.00 0.00
1:55 am 01:55 Cloudy 43 6.3 33 0.8 68 68 SSW 6 9 30.00 1016 10 16 0.00 0.00
2:15 am 02:15 Cloudy with Light Rain 44 6.6 32 0 63 63 W 5 7 30.00 1016 10 16 0.00 0.00
2:35 am 02:35 Cloudy 44 6.5 31 -0.4 62 62 SW 5 7 29.97 1015 10 16 0.00 0.00
2:55 am 02:55 Cloudy 44 6.7 31 -0.5 60 60 S 7 11 29.97 1015 10 16 0.00 0.00
3:15 am 03:15 Clear 44 6.9 30 -1.3 56 56 S 6 9 29.94 1014 10 16 0.00 0.00
3:35 am 03:35 Mostly Cloudy 45 7.1 29 -1.8 54 54 S 6 9 29.94 1014 10 16 0.00 0.00
3:55 am 03:55 Clear 43 6.3 30 -1.1 59 59 SSW 7 11 29.94 1014 10 16 0.00 0.00
4:15 am 04:15 Clear 43 6.3 30 -1.3 59 59 S 6 9 29.91 1013 10 16 0.00 0.00
4:35 am 04:35 Clear 42 5.8 30 -1.1 62 62 SSW 5 7 29.91 1013 10 16 0.00 0.00
4:55 am 04:55 Partly Cloudy 39 4.1 33 0.5 78 78 Calm 29.91 1013 10 16 0.00 0.00
5:15 am 05:15 Mostly Cloudy 41 4.9 32 0.1 71 71 Calm 29.91 1013 10 16 0.00 0.00
5:35 am 05:35 Partly Cloudy 41 5 31 -0.4 68 68 Calm 29.91 1013 10 16 0.00 0.00
5:55 am 05:55 Clear 41 5.1 31 -0.7 66 66 S 3 6 29.91 1013 10 16 0.00 0.00
6:15 am 06:15 Partly Cloudy 42 5.5 31 -0.7 65 65 S 7 11 29.91 1013 10 16 0.00 0.00
6:35 am 06:35 Cloudy 43 6.2 31 -0.5 63 63 SSW 7 11 29.91 1013 10 16 0.00 0.00
6:55 am 06:55 Cloudy 44 6.6 31 -0.5 61 61 SSW 8 13 29.88 1012 10 16 0.00 0.00
7:15 am 07:15 Cloudy 44 6.9 31 -0.7 59 59 SW 9 15 29.91 1013 10 16 0.00 0.00
7:35 am 07:35 Cloudy 44 6.8 31 -0.6 60 60 SW 9 15 29.91 1013 10 16 0.00 0.00
7:55 am 07:55 Partly Cloudy 44 6.6 31 -0.6 60 60 SW 10 17 29.91 1013 10 16 0.00 0.00
8:15 am 08:15 Sunny 44 6.8 31 -0.4 60 60 SW 8 13 29.91 1013 10 16 0.00 0.00
8:35 am 08:35 Sunny 45 7.1 31 -0.5 59 59 SW 8 13 29.91 1013 10 16 0.00 0.00
8:55 am 08:55 Sunny 45 7.4 31 -0.5 58 58 SW 7 11 29.91 1013 10 16 0.00 0.00
9:15 am 09:15 Sunny 46 7.8 32 0 58 58 SW 8 13 29.91 1013 10 16 0.00 0.00
9:35 am 09:35 Sunny 47 8.3 32 -0.1 56 56 SW 7 11 29.91 1013 10 16 0.00 0.00
9:55 am 09:55 Sunny 49 9.2 33 0.5 55 55 SSW 9 15 29.91 1013 10 16 0.00 0.00
10:15 am 10:15 Sunny 50 10.1 33 0.8 53 53 SW 13 20 29.91 1013 10 16 0.00 0.00
10:35 am 10:35 Sunny 52 11 35 1.6 53 53 WSW 13 20 29.91 1013 10 16 0.00 0.00
10:55 am 10:55 Sunny 53 11.5 35 1.9 52 52 W 13 20 29.91 1013 10 16 0.00 0.00
11:15 am 11:15 Sunny 53 11.6 35 1.8 51 51 W 13 20 29.91 1013 10 16 0.00 0.00
11:35 am 11:35 Sunny 54 12.3 36 2 50 50 W 16 26 29.91 1013 10 16 0.00 0.00
11:55 am 11:55 Sunny 55 12.6 35 1.4 47 47 W 13 20 29.91 1013 10 16 0.00 0.00
12:15 pm 12:15 Sunny 56 13.1 32 0.2 41 41 W 21 33 29.91 1013 10 16 0.00 0.00
12:35 pm 12:35 Sunny 56 13.6 32 0.1 40 40 W 16 26 29.91 1013 10 16 0.00 0.00
12:55 pm 12:55 Sunny 57 13.9 31 -0.5 37 37 W 15 24 29.91 1013 10 16 0.00 0.00
1:15 pm 13:15 Sunny 57 13.7 30 -1 37 37 WSW 16 26 29.88 1012 10 16 0.00 0.00
1:35 pm 13:35 Sunny 57 14.1 30 -0.9 36 36 W 14 22 29.85 1011 10 16 0.00 0.00
1:55 pm 13:55 Sunny 59 14.9 31 -0.8 34 34 W 17 28 29.85 1011 10 16 0.00 0.00
2:15 pm 14:15 Partly Cloudy 58 14.6 30 -1 34 34 W 15 24 29.85 1011 10 16 0.00 0.00
2:35 pm 14:35 Partly Cloudy 59 14.9 31 -0.5 35 35 WSW 16 26 29.85 1011 10 16 0.00 0.00
2:55 pm 14:55 Partly Cloudy 58 14.2 30 -1.1 35 35 W 18 30 29.85 1011 10 16 0.00 0.00
3:15 pm 15:15 Partly Cloudy 58 14.4 31 -0.8 35 35 W 14 22 29.85 1011 10 16 0.00 0.00
3:35 pm 15:35 Sunny 57 13.8 30 -1.1 36 36 WNW 20 31 29.88 1012 10 16 0.00 0.00
3:55 pm 15:55 Cloudy 56 13.2 30 -1.2 37 37 WNW 12 19 29.88 1012 10 16 0.00 0.00
4:15 pm 16:15 Cloudy 56 13.1 31 -0.7 39 39 WNW 15 24 29.88 1012 10 16 0.00 0.00
4:35 pm 16:35 Cloudy 55 12.5 28 -2 37 37 WNW 20 31 29.88 1012 10 16 0.00 0.00
4:55 pm 16:55 Cloudy 54 12 29 -1.9 38 38 NW 15 24 29.88 1012 10 16 0.00 0.00
5:15 pm 17:15 Cloudy 52 11 29 -1.6 42 42 NW 15 24 29.88 1012 10 16 0.00 0.00
5:35 pm 17:35 Cloudy 51 10.3 30 -1.2 45 45 WNW 13 20 29.88 1012 10 16 0.00 0.00
5:55 pm 17:55 Cloudy 47 8.6 28 -2.1 47 47 NW 17 28 29.88 1012 10 16 0.00 0.00
6:15 pm 18:15 Cloudy 45 7.1 32 -0.1 61 61 NW 16 26 29.91 1013 10 16 0.00 0.00
6:35 pm 18:35 Cloudy 44 6.6 32 0.1 64 64 NW 10 17 29.91 1013 10 16 0.00 0.00
6:55 pm 18:55 Cloudy with Light Rain 42 5.3 33 0.8 73 73 NW 16 26 29.91 1013 10 16 0.00 0.00
7:15 pm 19:15 Cloudy 40 4.5 32 0.2 74 74 WNW 17 28 29.94 1014 10 16 0.00 0.00
7:35 pm 19:35 Cloudy with Light Rain 38 3.3 33 0.7 83 83 NNW 13 20 29.94 1014 5 8 0.00 0.00
7:55 pm 19:55 Cloudy with Light Rain 37 2.5 33 0.8 89 89 NW 8 13 29.97 1015 4 6 0.00 0.00
8:15 pm 20:15 Cloudy with Light Rain 36 2.1 33 0.7 91 91 WNW 8 13 30.00 1016 4 6 0.01 0.25
8:35 pm 20:35 Cloudy with Light Rain 35 1.9 33 0.5 91 91 WNW 13 20 30.00 1016 5 8 0.02 0.51
8:55 pm 20:55 Cloudy with Light Snow 35 1.4 31 -0.6 87 87 NW 12 19 30.00 1016 5 8 0.02 0.51
9:15 pm 21:15 Cloudy with Light Rain 35 1.4 31 -0.4 88 88 WNW 9 15 30.03 1017 10 16 0.00 0.00
9:35 pm 21:35 Cloudy with Light Rain 34 1.1 29 -1.7 82 82 NW 8 13 30.03 1017 10 16 0.00 0.00
9:55 pm 21:55 Cloudy with Light Snow 33 0.5 28 -2.1 83 83 NW 12 19 30.03 1017 7 11 0.00 0.00
10:15 pm 22:15 Cloudy with Light Snow 33 0.4 29 -1.8 85 85 WNW 9 15 30.06 1018 7 11 0.00 0.00
10:35 pm 22:35 Cloudy with Light Snow 32 0 29 -1.4 90 90 W 7 11 30.06 1018 3 5 0.00 0.00
10:55 pm 22:55 Cloudy with Light Snow 32 0.1 29 -1.8 87 87 NNW 13 20 30.06 1018 4 6 0.00 0.00
11:15 pm 23:15 Cloudy with Light Snow 31 -0.5 28 -2.5 87 87 NNW 7 11 30.06 1018 4 6 0.00 0.00
11:35 pm 23:35 Cloudy with Light Snow 31 -0.5 27 -2.6 86 86 NNW 7 11 30.06 1018 5 8 0.00 0.00
11:55 pm 23:55 Cloudy with Light Snow 31 -0.6 28 -2.3 88 88 NNW 9 15 30.06 1018 4 6 0.00 0.00

Powered by AerisWeather